Weather in Salovka

Russia / Penza Oblast     53°06′17″N   44°47′28″E
temp.,
°C
wind,
m/s
gust,
m/s
humid.,
%
clouds,
%
prec.,
mm/h
press.,
hPa
HPBL,
m
23 may, mon
mon2300:00+6nne4870100 0.0 999388
03:00+2n37835 0.0 1000183
06:00+3n57745 0.0 1001357
09:00+7nnw555820 0.0 10021182
12:00+8nw5552100 0.0 10021729
15:00+7nw6655100 0.0 10041387
18:00+6wnw576296 0.1 10051188
21:00+3w357537 0.1 100596
24 may, tue
tue2400:00+2sw49825 0.0 1006177
03:00+2sw513825 0.0 1005298
06:00+4wsw511805 0.0 1005334
09:00+10w7105699 0.0 10051215
12:00+12wsw694480 0.0 10052226
15:00+12wnw7954100 0.1 10051732
18:00+7w3676100 0.4 1008869
21:00+5nw368772 0.6 1009143
25 may, wed
wed2500:00+3wnw369231 0.0 1010136
03:00+1nnw35945 0.0 1011114
06:00+3nnw46775 0.0 1013312
09:00+7nnw455966 0.0 10131352
12:00+8nw4556100 0.1 10141340
15:00+9nw565487 0.2 10141731
18:00+8nw4566100 0.1 10151110
21:00+4wnw36825 0.3 101691
26 may, thu
thu2600:00+3w338574 0.0 101638
03:00+2w338676 0.0 101661
06:00+5wsw35795 0.0 1016217
09:00+9sw455980 0.0 1014979
12:00+13sw5757100 0.0 10121427
15:00+14sw797141 0.0 10101219
18:00+14sw61280100 1.3 1007559
21:00+12wsw31092100 1.9 1006315
27 may, fri
fri2700:00+11sw61588100 1.1 1003985
03:00+10sw91496100 3.9 10001021
06:00+10wsw81491100 0.4 999860
09:00+10wsw91491100 1.1 9991058
12:00+10wsw91492100 3.2 10001015
15:00+9w61096100 3.9 1001702
18:00+12wnw61193100 0.1 1003695
21:00+10w599670 0.3 1006390